| time (UTC) | temp C | wind direction | speed KPH | gust KPH | rain 1hr cm | rain 24hr cm | rain mn cm | humidity % | barometer mb |
| 20260506143033 | 17 | 153 | 0.0 | 6.4 | 0.00 | 0.00 | 0.00 | 48 | 1007.5 |
| 20260506141524 | 17 | 108 | 0.0 | 4.8 | 0.00 | 0.00 | 0.00 | 47 | 1007.7 |
| 20260506140022 | 17 | 97 | 0.0 | 6.4 | 0.00 | 0.00 | 0.00 | 48 | 1007.7 |
| 20260506134520 | 16 | 65 | 1.6 | 6.4 | 0.00 | 0.00 | 0.00 | 48 | 1007.8 |
| 20260506133017 | 16 | 120 | 1.6 | 8.0 | 0.00 | 0.00 | 0.00 | 49 | 1007.7 |
| 20260506131515 | 16 | 3 | 0.0 | 3.2 | 0.00 | 0.00 | 0.00 | 50 | 1007.6 |
| 20260506130014 | 16 | 275 | 0.0 | 3.2 | 0.00 | 0.00 | 0.00 | 50 | 1007.6 |
| 20260506124513 | 16 | 136 | 0.0 | 1.6 | 0.00 | 0.00 | 0.00 | 49 | 1007.6 |
| 20260506123053 | 15 | 141 | 0.0 | 1.6 | 0.00 | 0.00 | 0.00 | 50 | 1007.9 |
| 20260506121551 | 15 | 70 | 0.0 | 1.6 | 0.00 | 0.00 | 0.00 | 49 | 1008.2 |
| 20260506120031 | 14 | 81 | 0.0 | 3.2 | 0.00 | 0.00 | 0.00 | 48 | 1008.2 |
| 20260506114538 | 13 | 57 | 0.0 | 1.6 | 0.00 | 0.00 | 0.00 | 43 | 1008.1 |
| 20260506113012 | 13 | 155 | 0.0 | 0.0 | 0.00 | 0.00 | 0.00 | 42 | 1008.0 |
| 20260506111513 | 12 | 145 | 0.0 | 0.0 | 0.00 | 0.00 | 0.00 | 43 | 1008.1 |
| 20260506110100 | 11 | 145 | 0.0 | 0.0 | 0.00 | 0.00 | 0.00 | 43 | 1008.2 |
| 20260506104552 | 11 | 145 | 0.0 | 0.0 | 0.00 | 0.00 | 0.00 | 42 | 1008.3 |
| 20260506103034 | 11 | 145 | 0.0 | 0.0 | 0.00 | 0.00 | 0.00 | 41 | 1008.1 |
| 20260506101534 | 11 | 145 | 0.0 | 0.0 | 0.00 | 0.00 | 0.00 | 40 | 1008.1 |
| 20260506100015 | 11 | 145 | 0.0 | 0.0 | 0.00 | 0.00 | 0.00 | 40 | 1008.1 |
| 20260506094514 | 11 | 145 | 0.0 | 0.0 | 0.00 | 0.00 | 0.00 | 40 | 1007.9 |
| 20260506093057 | 11 | 145 | 0.0 | 0.0 | 0.00 | 0.00 | 0.00 | 42 | 1007.9 |
| 20260506091551 | 11 | 145 | 0.0 | 0.0 | 0.00 | 0.00 | 0.00 | 45 | 1008.0 |
| 20260506090031 | 11 | 145 | 0.0 | 0.0 | 0.00 | 0.00 | 0.00 | 47 | 1008.1 |
| 20260506084529 | 11 | 145 | 0.0 | 0.0 | 0.00 | 0.00 | 0.00 | 52 | 1008.1 |
| 20260506083014 | 12 | 145 | 0.0 | 0.0 | 0.00 | 0.00 | 0.00 | 55 | 1008.3 |
| 20260506081514 | 12 | 145 | 0.0 | 0.0 | 0.00 | 0.00 | 0.00 | 56 | 1008.3 |
| 20260506073009 | 12 | 145 | 0.0 | 0.0 | 0.00 | 0.00 | 0.00 | 61 | 1008.5 |
| 20260506071508 | 12 | 145 | 0.0 | 0.0 | 0.00 | 0.00 | 0.00 | 63 | 1008.4 |
| 20260506061542 | 13 | 145 | 0.0 | 0.0 | 0.00 | 0.00 | 0.00 | 66 | 1008.4 |
| 20260506044547 | 13 | 145 | 0.0 | 0.0 | 0.00 | 0.00 | 0.00 | 66 | 1008.8 |
| 20260506043023 | 13 | 145 | 0.0 | 0.0 | 0.00 | 0.00 | 0.00 | 65 | 1008.8 |
| 20260506041521 | 14 | 145 | 0.0 | 0.0 | 0.00 | 0.00 | 0.00 | 64 | 1008.8 |
| 20260506040005 | 14 | 145 | 0.0 | 0.0 | 0.00 | 0.00 | 0.00 | 64 | 1008.8 |
| 20260506034503 | 15 | 145 | 0.0 | 0.0 | 0.00 | 0.00 | 0.00 | 63 | 1008.9 |
| 20260506033101 | 15 | 145 | 0.0 | 0.0 | 0.00 | 0.00 | 0.00 | 62 | 1008.9 |
| 20260506031556 | 15 | 145 | 0.0 | 0.0 | 0.00 | 0.00 | 0.00 | 62 | 1008.7 |
| 20260506030043 | 15 | 145 | 0.0 | 0.0 | 0.00 | 0.00 | 0.00 | 61 | 1008.8 |
| 20260506024528 | 15 | 144 | 0.0 | 0.0 | 0.00 | 0.00 | 0.00 | 61 | 1008.8 |
| 20260506023026 | 15 | 96 | 0.0 | 0.0 | 0.00 | 0.00 | 0.00 | 60 | 1008.8 |
| 20260506021509 | 16 | 96 | 0.0 | 0.0 | 0.00 | 0.00 | 0.00 | 58 | 1008.7 |
| 20260506020007 | 16 | 86 | 0.0 | 0.0 | 0.00 | 0.00 | 0.00 | 57 | 1008.6 |
| 20260506014549 | 16 | 84 | 0.0 | 3.2 | 0.00 | 0.00 | 0.00 | 57 | 1008.4 |
| 20260506013048 | 17 | 145 | 0.0 | 1.6 | 0.00 | 0.00 | 0.00 | 56 | 1008.3 |
| 20260506011537 | 17 | 105 | 0.0 | 0.0 | 0.00 | 0.00 | 0.00 | 55 | 1008.1 |
| 20260506010034 | 17 | 177 | 0.0 | 8.0 | 0.00 | 0.00 | 0.00 | 54 | 1007.9 |
| 20260506004522 | 17 | 153 | 0.0 | 0.0 | 0.00 | 0.00 | 0.00 | 53 | 1007.8 |
| 20260506003015 | 17 | 162 | 0.0 | 0.0 | 0.00 | 0.00 | 0.00 | 53 | 1007.6 |
| 20260506001555 | 18 | 150 | 0.0 | 1.6 | 0.00 | 0.00 | 0.00 | 53 | 1007.2 |
| 20260506000058 | 18 | 153 | 0.0 | 1.6 | 0.00 | 0.00 | 0.00 | 52 | 1007.2 |
| 20260505234540 | 18 | 160 | 0.0 | 1.6 | 0.00 | 0.00 | 0.00 | 51 | 1007.0 |
| 20260505233038 | 18 | 120 | 0.0 | 1.6 | 0.00 | 0.00 | 0.00 | 50 | 1006.8 |
| 20260505231526 | 19 | 152 | 0.0 | 0.0 | 0.00 | 0.00 | 0.00 | 49 | 1006.6 |
| 20260505230026 | 20 | 139 | 0.0 | 1.6 | 0.00 | 0.00 | 0.00 | 48 | 1006.5 |
| 20260505224600 | 20 | 155 | 0.0 | 3.2 | 0.00 | 0.00 | 0.00 | 47 | 1006.3 |
| 20260505223059 | 20 | 111 | 0.0 | 3.2 | 0.00 | 0.00 | 0.00 | 47 | 1006.3 |
| 20260505221541 | 20 | 123 | 1.6 | 3.2 | 0.00 | 0.00 | 0.00 | 47 | 1006.6 |
| 20260505220043 | 21 | 145 | 1.6 | 6.4 | 0.00 | 0.00 | 0.00 | 45 | 1006.3 |
| 20260505214535 | 21 | 167 | 1.6 | 6.4 | 0.00 | 0.00 | 0.00 | 45 | 1006.3 |
| 20260505213030 | 21 | 127 | 1.6 | 8.0 | 0.00 | 0.00 | 0.00 | 44 | 1006.2 |
| 20260505211527 | 22 | 158 | 1.6 | 6.4 | 0.00 | 0.00 | 0.00 | 44 | 1006.1 |
| 20260505210028 | 22 | 144 | 0.0 | 6.4 | 0.00 | 0.00 | 0.00 | 43 | 1006.0 |
| 20260505204532 | 22 | 166 | 0.0 | 6.4 | 0.00 | 0.00 | 0.00 | 43 | 1006.2 |
| 20260505203030 | 22 | 126 | 1.6 | 8.0 | 0.00 | 0.00 | 0.00 | 43 | 1006.2 |
| 20260505201521 | 23 | 176 | 3.2 | 9.7 | 0.00 | 0.00 | 0.00 | 40 | 1006.3 |
| 20260505200034 | 23 | 188 | 1.6 | 6.4 | 0.00 | 0.00 | 0.00 | 40 | 1006.3 |
| 20260505194504 | 23 | 134 | 0.0 | 8.0 | 0.00 | 0.00 | 0.00 | 41 | 1006.6 |
| 20260505193000 | 23 | 124 | 3.2 | 8.0 | 0.00 | 0.00 | 0.00 | 40 | 1006.6 |
| 20260505191543 | 24 | 141 | 1.6 | 8.0 | 0.00 | 0.00 | 0.00 | 39 | 1006.8 |
| 20260505190043 | 25 | 121 | 3.2 | 6.4 | 0.00 | 0.00 | 0.00 | 38 | 1007.0 |
| 20260505184520 | 25 | 131 | 0.0 | 8.0 | 0.00 | 0.00 | 0.00 | 38 | 1007.1 |
| 20260505183018 | 25 | 120 | 1.6 | 11.3 | 0.00 | 0.00 | 0.00 | 37 | 1007.1 |
| 20260505181600 | 25 | 137 | 3.2 | 9.7 | 0.00 | 0.00 | 0.00 | 37 | 1007.1 |
| 20260505180058 | 25 | 94 | 1.6 | 9.7 | 0.00 | 0.00 | 0.00 | 36 | 1007.2 |
| 20260505174542 | 25 | 102 | 1.6 | 6.4 | 0.00 | 0.00 | 0.00 | 36 | 1007.2 |
| 20260505173036 | 25 | 98 | 1.6 | 6.4 | 0.00 | 0.00 | 0.00 | 36 | 1007.3 |
| 20260505171522 | 25 | 155 | 3.2 | 8.0 | 0.00 | 0.00 | 0.00 | 36 | 1007.4 |
| 20260505170018 | 25 | 120 | 1.6 | 8.0 | 0.00 | 0.00 | 0.00 | 36 | 1007.6 |
| 20260505164616 | 24 | 10 | 1.6 | 6.4 | 0.00 | 0.00 | 0.00 | 37 | 1007.7 |
| 20260505163058 | 24 | 49 | 1.6 | 6.4 | 0.00 | 0.00 | 0.00 | 37 | 1008.0 |
| 20260505161530 | 23 | 176 | 1.6 | 6.4 | 0.00 | 0.00 | 0.00 | 40 | 1008.3 |
| 20260505153003 | 22 | 174 | 0.0 | 4.8 | 0.00 | 0.00 | 0.00 | 42 | 1008.7 |
| 20260505151546 | 21 | 139 | 0.0 | 6.4 | 0.00 | 0.00 | 0.00 | 43 | 1008.9 |